PST,Max TemperatureF,Mean TemperatureF,Min TemperatureF,Max Dew PointF,MeanDew PointF,Min DewpointF,Max Humidity, Mean Humidity, Min Humidity, Max Sea Level PressureIn, Mean Sea Level PressureIn, Min Sea Level PressureIn, Max VisibilityMiles, Mean VisibilityMiles, Min VisibilityMiles, Max Wind SpeedMPH, Mean Wind SpeedMPH, Max Gust SpeedMPH,PrecipitationIn, CloudCover, Events, WindDirDegrees
2013-12-1,77,66,54,57,46,32,72,43,14,30.20,30.14,30.08,10,10,10,12,2,14,0.00,2,,318
2013-12-2,71,61,50,53,45,39,89,62,34,30.09,30.01,29.92,10,10,9,10,2,14,0.00,4,,198
2013-12-3,67,58,49,54,48,40,77,67,56,29.90,29.81,29.76,10,10,10,16,5,20,0.00,5,,194
2013-12-4,62,55,48,45,38,29,71,50,29,29.97,29.89,29.79,10,10,10,12,5,17,0.00,2,,225
2013-12-5,62,55,47,39,37,34,66,53,39,30.11,30.01,29.95,10,10,10,14,5,18,0.00,3,,150
2013-12-6,62,55,48,39,38,36,66,54,42,30.17,30.13,30.10,10,10,10,15,5,22,0.00,4,,153
2013-12-7,59,54,48,52,42,31,89,74,59,30.11,30.06,30.01,10,9,2,17,4,24,0.14,6,Rain,230
2013-12-8,57,49,40,39,36,30,79,59,38,30.20,30.14,30.11,10,10,10,9,2,12,0.00,4,,236
2013-12-9,63,52,41,37,9,-2,82,45,8,30.27,30.24,30.18,10,10,10,22,6,30,0.00,2,,56
2013-12-10,68,54,39,39,26,14,48,31,13,30.24,30.15,30.09,10,10,10,14,2,16,0.00,1,,232
2013-12-11,69,55,40,49,36,28,70,46,22,30.16,30.12,30.09,10,10,10,10,2,14,0.00,2,,214
2013-12-12,66,57,48,51,45,41,80,64,48,30.22,30.17,30.13,10,10,8,12,4,14,0.00,1,,180
2013-12-13,66,56,45,49,44,37,83,66,48,30.23,30.18,30.12,10,10,7,10,3,13,0.00,2,,180
2013-12-14,76,60,43,44,36,18,92,52,11,30.27,30.22,30.17,10,8,4,15,4,20,0.00,0,,224
2013-12-15,85,65,44,51,35,22,53,32,10,30.22,30.14,30.05,10,10,10,8,2,10,0.00,3,,264
2013-12-16,79,65,50,47,41,36,66,44,21,30.12,30.08,30.04,10,10,10,13,1,15,0.00,3,,227
2013-12-17,78,65,51,55,44,33,71,45,19,30.12,30.05,30.00,10,10,10,10,1,14,0.00,3,,214
2013-12-18,72,64,56,56,52,46,84,65,45,30.00,29.92,29.86,10,9,7,16,4,18,0.00,5,,214
2013-12-19,60,57,54,50,47,44,83,73,62,29.86,29.77,29.73,10,8,2,13,6,15,0.15,6,Rain,203
2013-12-20,62,53,44,48,45,40,93,75,56,29.94,29.85,29.77,10,10,10,12,3,15,0.00,1,,162
2013-12-21,64,55,46,48,45,40,82,69,56,30.08,29.99,29.93,10,10,10,12,5,15,0.00,3,,102
2013-12-22,69,58,46,50,46,42,86,64,42,30.25,30.18,30.09,10,8,4,8,1,10,0.00,0,,299
2013-12-23,79,63,46,46,40,32,86,53,19,30.30,30.23,30.17,10,8,4,10,2,15,0.00,0,,306
2013-12-24,75,62,48,47,42,39,71,49,27,30.19,30.14,30.08,10,10,10,8,1,10,0.00,0,,201
2013-12-25,84,68,51,44,24,15,77,43,9,30.17,30.13,30.09,10,10,10,16,5,21,0.00,1,,48
2013-12-26,84,66,47,41,28,6,50,28,5,30.15,30.11,30.05,10,10,10,13,2,16,0.00,0,,211
2013-12-27,80,63,45,43,34,26,62,39,15,30.14,30.09,30.04,10,10,10,10,2,13,0.00,3,,178
2013-12-28,71,61,51,52,41,32,55,40,25,30.02,29.98,29.93,10,10,8,16,3,20,0.00,2,,202
2013-12-29,80,59,38,48,31,2,100,53,5,30.14,30.05,30.00,10,7,0,23,6,33,0.00,1,Fog,10
2013-12-30,75,60,44,43,29,20,49,32,14,30.25,30.19,30.14,10,10,10,9,1,12,0.00,1,,237
2013-12-31,69,57,44,53,40,30,60,49,37,30.20,30.14,30.09,10,10,6,8,2,9,0.00,1,,225